[[{"header":{"parameterUnit":"m.s-1","parameterCategory":1,"la1":30.2991,"la2":30.254,"lo1":-89.0895,"lo2":-89.0444,"dy":0.0017,"dx":0.0017,"nx":28,"ny":28,"refTime":"2023-11-11T03:00:00:Z","depth":0,"parameterNumber":2,"parameterNumberName":"U-component_of_WINDS"},"data":[0,0,0,0,0,0,0,0,0,0,0,0,0,0,0,0,0,0,0,0,0,0,0,0,0,0,0,0,0,0,0,0,0,0,0,0,0,0,0,0,0,0,0,0,0,0,0,0,0,0,0,0,0,0,0,0,0,0,-3.7228,-3.7227,0,-3.7142,-3.7141,-3.714,-3.7053,-3.7052,-3.7051,-3.705,-3.6955,-3.6953,-3.6952,0,0,0,0,0,0,0,0,0,0,0,0,0,-3.7314,-3.7313,-3.7228,-3.7227,-3.7226,-3.7142,-3.714,-3.7139,-3.7053,-3.7052,-3.7051,-3.7049,-3.6955,-3.6954,-3.6952,0,0,0,0,0,0,0,0,0,0,0,0,0,-3.7257,-3.7313,-3.7228,-3.7173,-3.7167,-3.7142,-3.714,-3.7139,-3.7054,-3.7052,-3.705,-3.7049,-3.6956,-3.6954,-3.6952,-3.6972,0,0,-3.6945,-3.6944,0,0,0,0,0,0,0,0,-3.7261,-3.7254,-3.7182,-3.7177,-3.717,-3.7107,-3.7136,-3.7083,-3.7054,-3.7097,-3.705,-3.7048,-3.7006,-3.7,-3.6987,-3.6968,-3.6963,-3.6945,-3.6943,-3.6942,-3.6942,0,0,0,0,0,0,0,-3.7265,-3.7257,-3.7194,-3.7181,-3.7174,-3.7151,-3.7141,-3.7126,-3.7062,-3.7093,-3.7086,-3.7078,-3.7003,-3.6989,-3.6984,-3.6962,-3.6945,-3.6943,-3.6941,-3.6941,-3.6956,-3.6958,0,0,0,0,0,0,-3.7278,-3.7261,-3.7196,-3.7191,-3.7212,-3.7151,-3.714,-3.7129,-3.7062,-3.705,-3.7079,-3.7074,-3.6994,-3.6987,-3.6981,-3.7001,-3.6942,-3.694,-3.6939,-3.6954,-3.6956,-3.6958,0,0,0,0,0,0,-3.728,-3.7273,-3.72,-3.7224,-3.7213,-3.7151,-3.7139,-3.7128,-3.7115,-3.7052,-3.7039,-3.7078,-3.6992,-3.6984,-3.6976,-3.6997,-3.6939,-3.6937,-3.6952,-3.6955,-3.6957,-3.7043,0,0,0,0,0,0,-3.7283,-3.7274,-3.7282,-3.7225,-3.7213,-3.7198,-3.7141,-3.7127,-3.7112,-3.7104,-3.7047,-3.7036,-3.699,-3.6979,-3.6973,-3.6993,-3.6936,-3.695,-3.6953,-3.6956,-3.7038,-3.7048,-3.7057,0,0,0,0,0,-3.7286,-3.7308,-3.7283,-3.7276,-3.7222,-3.72,-3.7192,-3.7141,-3.7114,-3.7121,-3.7081,-3.7038,-3.6995,-3.6979,-3.6972,-3.6991,-3.6948,-3.6952,-3.6956,-3.7034,-3.7046,-3.7057,0,0,0,0,0,0,-3.7367,-3.73,-3.7271,-3.7276,-3.7245,-3.7185,-3.7193,-3.7156,-3.713,-3.7124,-3.7059,-3.7047,-3.7047,-3.7017,-3.7001,-3.7008,-3.6966,-3.6969,-3.7027,-3.7039,-3.7048,-3.7055,-3.6934,0,0,0,0,0,-3.7386,-3.7375,-3.7316,-3.7326,-3.7312,-3.7255,-3.7244,-3.7207,-3.7171,-3.7157,-3.7116,-3.7081,-3.706,-3.7047,-3.7024,-3.7033,-3.7019,-3.7042,-3.7052,-3.706,-3.7063,-3.7067,-3.7077,-3.6971,-3.6971,-3.6971,0,0,-3.7424,-3.7386,-3.7382,-3.7341,-3.7312,-3.7302,-3.7244,-3.7235,-3.7226,-3.7155,-3.7146,-3.7115,-3.7071,-3.7072,-3.707,-3.7048,-3.7089,-3.7065,-3.7072,-3.707,-3.7072,-3.7082,-3.7091,-3.6974,-3.6973,-3.6973,0,0,-3.7488,-3.7458,-3.7464,-3.7437,-3.7395,-3.7358,-3.7359,-3.7306,-3.7283,-3.7273,-3.722,-3.7207,-3.7172,-3.7144,-3.7125,-3.718,-3.714,-3.7174,-3.7224,-3.7228,-3.7237,-3.7244,-3.7265,-3.7273,-3.7177,-3.7178,-3.7178,0,-3.754,-3.7524,-3.747,-3.7466,-3.7449,-3.7386,-3.7391,-3.7367,-3.7319,-3.7308,-3.7284,-3.724,-3.7206,-3.7201,-3.7215,-3.7201,-3.72,-3.7181,-3.724,-3.7247,-3.7253,-3.7272,-3.728,-3.7182,-3.7182,-3.7181,-3.7181,0,-3.759,-3.758,-3.7589,-3.7548,-3.7532,-3.7532,-3.7478,-3.7468,-3.7433,-3.7398,-3.7389,-3.7346,-3.7315,-3.731,-3.7275,-3.73,-3.7287,-3.7252,-3.7209,-3.7268,-3.7285,-3.7292,-3.7189,-3.7187,-3.7186,-3.7185,0,0,-3.7703,-3.7634,-3.7638,-3.7619,-3.7569,-3.7559,-3.7556,-3.7527,-3.752,-3.7489,-3.7485,-3.7457,-3.7426,-3.7404,-3.7365,-3.7369,-3.7417,-3.7333,-3.7331,-3.7352,-3.7443,-3.7472,-3.7481,-3.739,-3.7391,-3.7392,-3.7448,0,-3.776,-3.7753,-3.7706,-3.7712,-3.7702,-3.7642,-3.7639,-3.7608,-3.7575,-3.756,-3.7522,-3.7505,-3.7463,-3.745,-3.7451,-3.7411,-3.7435,-3.7406,-3.7385,-3.7385,-3.74,-3.749,-3.7519,-3.7574,-3.7454,-3.7455,-3.7456,0,-3.7826,-3.7802,-3.7808,-3.776,-3.7754,-3.7752,-3.7723,-3.771,-3.7672,-3.7648,-3.7626,-3.7582,-3.7574,-3.7534,-3.7522,-3.7504,-3.7492,-3.7471,-3.7472,-3.7469,-3.7425,-3.7491,-3.759,-3.7599,-3.7465,-3.7465,-3.7464,0,-3.791,-3.7879,-3.7879,-3.7864,-3.7807,-3.7808,-3.7784,-3.7745,-3.7731,-3.7704,-3.7695,-3.7666,-3.7651,-3.763,-3.758,-3.7555,-3.7575,-3.7529,-3.7554,-3.7556,-3.7562,-3.7563,-3.7662,-3.7552,-3.7552,-3.7552,-3.7551,0,-3.798,-3.7986,-3.7917,-3.7917,-3.7923,-3.7867,-3.7873,-3.7843,-3.7809,-3.7802,-3.7747,-3.774,-3.7674,-3.766,-3.762,-3.7618,-3.761,-3.759,-3.758,-3.7596,-3.7599,-3.7589,-3.7584,-3.7554,-3.7553,-3.7553,-3.7552,0,-3.8075,-3.8029,-3.8026,-3.7972,-3.7959,-3.7966,-3.7919,-3.7917,-3.7881,-3.7872,-3.7867,-3.781,-3.779,-3.7738,-3.7704,-3.7678,-3.7687,-3.7666,-3.7701,-3.7694,-3.7723,-3.7722,-3.7821,-3.7831,-3.7713,-3.7714,-3.7715,0,-3.8124,-3.8128,-3.8076,-3.8068,-3.8047,-3.8035,-3.8021,-3.7966,-3.7954,-3.7913,-3.7915,-3.7892,-3.7871,-3.7843,-3.7797,-3.7771,-3.7751,-3.7787,-3.7746,-3.7763,-3.7753,-3.7755,-3.7755,-3.7797,-3.7798,-3.7799,-3.7801,0,-3.8215,-3.8193,-3.8176,-3.8152,-3.8138,-3.8116,-3.8091,-3.8087,-3.8025,-3.8014,-3.7995,-3.7979,-3.7946,-3.7924,-3.7891,-3.7864,-3.7823,-3.7814,-3.7818,-3.7836,-3.7857,-3.7848,-3.7727,-3.7812,-3.7811,-3.781,-3.7809,-3.7809,-3.829,-3.8291,-3.8256,-3.824,-3.8215,-3.8193,-3.8189,-3.8153,-3.8137,-3.8108,-3.8076,-3.8061,-3.8023,-3.7976,-3.7952,-3.7938,-3.7916,-3.7922,-3.7924,-3.7927,-3.7936,-3.7858,-3.7931,-3.7931,-3.7931,-3.793,-3.793,0,-3.838,-3.8355,-3.834,-3.8308,-3.8295,-3.8259,-3.8229,-3.822,-3.8209,-3.8178,-3.8159,-3.8138,-3.8116,-3.807,-3.8044,-3.8042,-3.8022,-3.8037,-3.8037,-3.8032,-3.7956,-3.7955,-3.8054,-3.8054,-3.8054,-3.8054,-3.8054,-3.8053,-3.8426,-3.8428,-3.8401,-3.839,-3.8363,-3.835,-3.8336,-3.8315,-3.8291,-3.8271,-3.8254,-3.8224,-3.8187,-3.8158,-3.8136,-3.8123,-3.8116,-3.8138,-3.8119,-3.8049,-3.8037,-3.8026,-3.8025,-3.8137,-3.8137,-3.8196,-3.8197,-3.8197]},{"header":{"parameterUnit":"m.s-1","parameterCategory":1,"la1":30.2991,"la2":30.254,"lo1":-89.0895,"lo2":-89.0444,"dy":0.0017,"dx":0.0017,"nx":28,"ny":28,"refTime":"2023-11-11T03:00:00:Z","depth":0,"parameterNumber":3,"parameterNumberName":"V-component_of_WINDS"},"data":[0,0,0,0,0,0,0,0,0,0,0,0,0,0,0,0,0,0,0,0,0,0,0,0,0,0,0,0,0,0,0,0,0,0,0,0,0,0,0,0,0,0,0,0,0,0,0,0,0,0,0,0,0,0,0,0,0,0,-2.4687,-2.4689,0,-2.4873,-2.4875,-2.4877,-2.5024,-2.5026,-2.5027,-2.5029,-2.5213,-2.5216,-2.5219,0,0,0,0,0,0,0,0,0,0,0,0,0,-2.4456,-2.4459,-2.4687,-2.4689,-2.4692,-2.4872,-2.4875,-2.4877,-2.5024,-2.5026,-2.5028,-2.5029,-2.5211,-2.5216,-2.522,0,0,0,0,0,0,0,0,0,0,0,0,0,-2.459,-2.446,-2.4687,-2.4787,-2.4798,-2.4872,-2.4875,-2.4878,-2.5024,-2.5026,-2.5028,-2.503,-2.521,-2.5215,-2.522,-2.5208,0,0,-2.5236,-2.5239,0,0,0,0,0,0,0,0,-2.4582,-2.4598,-2.477,-2.478,-2.4793,-2.4928,-2.4861,-2.4988,-2.5023,-2.4938,-2.5029,-2.5031,-2.5116,-2.5129,-2.5158,-2.5216,-2.5224,-2.5237,-2.524,-2.5242,-2.5244,0,0,0,0,0,0,0,-2.4573,-2.4591,-2.476,-2.4772,-2.4786,-2.4821,-2.4843,-2.4886,-2.5012,-2.4945,-2.4957,-2.4977,-2.5122,-2.5153,-2.5164,-2.5227,-2.5237,-2.5241,-2.5245,-2.5247,-2.5287,-2.5285,0,0,0,0,0,0,-2.4549,-2.4582,-2.4755,-2.4766,-2.4691,-2.4824,-2.4848,-2.4882,-2.5012,-2.5034,-2.4975,-2.4983,-2.5143,-2.5157,-2.5171,-2.5167,-2.5242,-2.5247,-2.525,-2.5289,-2.5286,-2.5284,0,0,0,0,0,0,-2.4543,-2.4563,-2.4747,-2.4677,-2.4704,-2.4825,-2.4863,-2.4884,-2.4916,-2.5034,-2.5057,-2.4983,-2.5145,-2.5163,-2.5199,-2.5175,-2.5249,-2.5254,-2.5291,-2.5288,-2.5285,-2.5156,0,0,0,0,0,0,-2.4536,-2.456,-2.4557,-2.4676,-2.4707,-2.4772,-2.4861,-2.4886,-2.4925,-2.4938,-2.5048,-2.5068,-2.5148,-2.519,-2.5204,-2.5183,-2.5258,-2.5294,-2.529,-2.5286,-2.5163,-2.5149,-2.5137,0,0,0,0,0,-2.4527,-2.4511,-2.4556,-2.4576,-2.4706,-2.4771,-2.4788,-2.4882,-2.4922,-2.492,-2.4997,-2.5065,-2.5175,-2.5192,-2.5209,-2.519,-2.5296,-2.5291,-2.5286,-2.5169,-2.5152,-2.5137,0,0,0,0,0,0,-2.4383,-2.4529,-2.458,-2.4603,-2.4674,-2.4796,-2.4796,-2.4861,-2.492,-2.4929,-2.5041,-2.5065,-2.5088,-2.5143,-2.5159,-2.5186,-2.5244,-2.5243,-2.5149,-2.5134,-2.5121,-2.5107,-2.5263,0,0,0,0,0,-2.4355,-2.4397,-2.4521,-2.4529,-2.4562,-2.4672,-2.4704,-2.4771,-2.4848,-2.4878,-2.4957,-2.5027,-2.5078,-2.5109,-2.5162,-2.5172,-2.5198,-2.5167,-2.5154,-2.5143,-2.514,-2.5151,-2.5139,-2.5268,-2.5269,-2.5269,0,0,-2.4295,-2.438,-2.4399,-2.4502,-2.4565,-2.4605,-2.4696,-2.4734,-2.4765,-2.4883,-2.4922,-2.4982,-2.5068,-2.5091,-2.5105,-2.5137,-2.511,-2.5137,-2.5127,-2.5131,-2.5145,-2.5132,-2.5121,-2.5265,-2.5266,-2.5266,0,0,-2.4207,-2.4275,-2.4291,-2.4353,-2.4448,-2.4522,-2.4525,-2.4638,-2.4684,-2.4725,-2.4815,-2.4852,-2.4937,-2.4996,-2.5036,-2.4973,-2.5038,-2.4987,-2.4919,-2.4928,-2.4918,-2.4909,-2.4888,-2.4878,-2.4984,-2.4984,-2.4984,0,-2.412,-2.4186,-2.429,-2.4324,-2.4367,-2.4478,-2.4495,-2.4549,-2.4654,-2.4681,-2.4716,-2.4828,-2.4893,-2.4932,-2.4917,-2.4946,-2.4953,-2.4975,-2.4911,-2.4904,-2.4897,-2.4878,-2.4869,-2.4977,-2.4978,-2.4978,-2.4979,0,-2.4075,-2.4119,-2.412,-2.4224,-2.4267,-2.429,-2.4397,-2.4428,-2.4491,-2.4561,-2.4602,-2.4686,-2.4759,-2.4773,-2.4833,-2.4821,-2.4838,-2.489,-2.4951,-2.4876,-2.486,-2.4853,-2.4967,-2.497,-2.4972,-2.4973,0,0,-2.39,-2.4063,-2.4062,-2.4111,-2.4225,-2.426,-2.429,-2.4364,-2.4388,-2.4458,-2.4485,-2.4556,-2.4607,-2.4653,-2.4721,-2.4729,-2.4675,-2.4782,-2.4785,-2.4759,-2.4667,-2.4627,-2.4617,-2.472,-2.4719,-2.4718,-2.466,0,-2.3831,-2.3893,-2.3988,-2.4018,-2.4061,-2.4169,-2.4194,-2.4266,-2.4333,-2.4377,-2.445,-2.4499,-2.4561,-2.459,-2.4602,-2.4679,-2.4658,-2.4684,-2.4746,-2.4746,-2.4721,-2.4608,-2.4566,-2.4507,-2.4654,-2.4653,-2.4653,0,-2.3759,-2.3826,-2.386,-2.3974,-2.3995,-2.4017,-2.4093,-2.4135,-2.4219,-2.4267,-2.4319,-2.4395,-2.4431,-2.4487,-2.4538,-2.4554,-2.4585,-2.4626,-2.4626,-2.4635,-2.4695,-2.4615,-2.4491,-2.4482,-2.4644,-2.4644,-2.4645,0,-2.3629,-2.3727,-2.3762,-2.38,-2.3933,-2.3946,-2.4001,-2.4088,-2.4127,-2.4193,-2.422,-2.4288,-2.4325,-2.4376,-2.4468,-2.45,-2.451,-2.4573,-2.455,-2.4548,-2.4547,-2.4546,-2.4426,-2.4566,-2.4566,-2.4566,-2.4566,0,-2.3542,-2.3559,-2.3706,-2.3727,-2.3749,-2.3858,-2.3877,-2.3942,-2.4019,-2.4054,-2.415,-2.418,-2.43,-2.4344,-2.4416,-2.4448,-2.4464,-2.4503,-2.4522,-2.4495,-2.449,-2.4516,-2.4523,-2.4564,-2.4564,-2.4565,-2.4565,0,-2.34,-2.3499,-2.3544,-2.3667,-2.3699,-2.371,-2.3815,-2.3838,-2.3912,-2.3954,-2.3971,-2.4084,-2.4141,-2.4239,-2.4323,-2.4372,-2.439,-2.4422,-2.4362,-2.4374,-2.4346,-2.4347,-2.424,-2.4231,-2.4374,-2.4373,-2.4371,0,-2.3338,-2.3355,-2.348,-2.3512,-2.3565,-2.3614,-2.3656,-2.3763,-2.3802,-2.3901,-2.3912,-2.3978,-2.4036,-2.4122,-2.4211,-2.4276,-2.4311,-2.4269,-2.4321,-2.4294,-2.4311,-2.4309,-2.4312,-2.4256,-2.4254,-2.4253,-2.4251,0,-2.3218,-2.3267,-2.3324,-2.3399,-2.3447,-2.351,-2.3578,-2.3597,-2.372,-2.3759,-2.382,-2.3865,-2.3953,-2.4016,-2.4095,-2.4151,-2.4221,-2.4234,-2.4233,-2.4205,-2.417,-2.4189,-2.433,-2.4236,-2.4238,-2.4239,-2.4239,-2.424,-2.3115,-2.3136,-2.3228,-2.3289,-2.3353,-2.3414,-2.3444,-2.3522,-2.3575,-2.3657,-2.3717,-2.3774,-2.3859,-2.3972,-2.4024,-2.407,-2.4102,-2.4099,-2.4098,-2.4096,-2.4086,-2.4163,-2.4084,-2.4085,-2.4085,-2.4086,-2.4086,0,-2.3001,-2.3067,-2.3122,-2.3216,-2.3263,-2.3328,-2.3407,-2.3442,-2.3492,-2.3567,-2.3623,-2.3693,-2.3756,-2.3851,-2.3921,-2.3939,-2.3973,-2.3954,-2.3953,-2.3965,-2.4053,-2.4048,-2.3925,-2.3925,-2.3925,-2.3925,-2.3925,-2.3925,-2.2947,-2.2986,-2.3046,-2.3116,-2.3182,-2.3241,-2.328,-2.3338,-2.3398,-2.3474,-2.3527,-2.359,-2.3673,-2.375,-2.381,-2.3837,-2.3858,-2.3828,-2.3864,-2.3944,-2.3959,-2.3973,-2.3969,-2.3832,-2.3832,-2.3774,-2.3773,-2.3773]}]]